Location: Coupvray
(48.8929°N, 2.7967°E)
Time: 08:40:59
(UTC+00:00)

Cosmos 1833 Rocket - Pass Details

Date: 14 July 2020
Orbit: 832 x 840 km, 71.0° (Epoch: 14 August)

Event Time Altitude Azimuth Distance (km) Brightness Sun altitude
Exits shadow 00:44:46 15° 138° (SE) 2,105 4.4 -18.6°
Maximum altitude 00:47:36 22° 101° (E) 1,762 4.4 -18.5°
Drops below altitude 10° 00:51:45 10° 53° (NE) 2,451 5.8 -18.3°
Sets 00:54:42 0° 39° (NE) 3,392 7.1 -18.2°
